This is the latest recevied weather packets stored in our database for station/object EA6AMR-10. If no packets are shown the sender has not sent any weather packets the latest 10 day(s).
| Time | Temp. | Humidity | Pressure | Rain* | Wind** | Luminosity | Snow |
|---|---|---|---|---|---|---|---|
| 1777751080 | 18.89° C | 55% | 1018.6 hPa | - | - | - | - |
| 1777750179 | 18.89° C | 55% | 1018.6 hPa | - | - | - | - |
| 1777749279 | 19.44° C | 54% | 1018.8 hPa | - | - | - | - |
| 1777748379 | 19.44° C | 54% | 1018.5 hPa | - | - | - | - |
| 1777747479 | 20° C | 53% | 1018.3 hPa | - | - | - | - |
| 1777746578 | 20° C | 53% | 1018.4 hPa | - | - | - | - |
| 1777745678 | 20.56° C | 53% | 1018.7 hPa | - | - | - | - |
| 1777744778 | 20.56° C | 53% | 1018.5 hPa | - | - | - | - |
| 1777743877 | 21.11° C | 53% | 1018.5 hPa | - | - | - | - |
| 1777742977 | 21.67° C | 52% | 1019 hPa | - | - | - | - |
| 1777742077 | 21.67° C | 52% | 1019.5 hPa | - | - | - | - |
| 1777741177 | 21.67° C | 52% | 1019 hPa | - | - | - | - |
| 1777740277 | 22.22° C | 52% | 1019 hPa | - | - | - | - |
| 1777739376 | 22.22° C | 53% | 1019 hPa | - | - | - | - |
| 1777738476 | 22.78° C | 52% | 1019.1 hPa | - | - | - | - |
| 1777737576 | 23.89° C | 52% | 1019.6 hPa | - | - | - | - |
| 1777736676 | 25° C | 51% | 1019.7 hPa | - | - | - | - |
| 1777735776 | 25° C | 51% | 1020 hPa | - | - | - | - |
| 1777734875 | 26.11° C | 50% | 1019.9 hPa | - | - | - | - |
| 1777733975 | 26.11° C | 50% | 1020.3 hPa | - | - | - | - |
| 1777733075 | 26.11° C | 50% | 1020.5 hPa | - | - | - | - |
| 1777732178 | 26.67° C | 50% | 1020.3 hPa | - | - | - | - |
| 1777731278 | 26.67° C | 50% | 1020.6 hPa | - | - | - | - |
| 1777730378 | 27.78° C | 49% | 1020.8 hPa | - | - | - | - |
| 1777729478 | 28.33° C | 49% | 1020.9 hPa | - | - | - | - |
* Rain since midnight (hover to see other rain measurements)
** Current wind speed in m/s (hover to see current wind gust speed)